Location: De Greiden
(52.9496°N, 5.9137°E)
Time: 01:04:45
(UTC+00:00)

COSMOS 2455 - Pass Details

Date: 24 January 2021
Orbit: 901 x 908 km, 67.1° (Epoch: 26 February)

Event Time Altitude Azimuth Distance (km) Brightness Sun altitude
Rises 17:57:49 0° 228° (SW) 3,526 6.9 -16.4°
Reaches altitude 10° 18:00:20 10° 231° (SW) 2,589 6.2 -16.8°
Maximum altitude 18:06:19 67° 314° (NW) 986 3.1 -17.7°
Enters shadow 18:11:06 17° 34° (NE) 2,154 4.4 -18.4°
